SCP
1 1 0 0 0 0 0 0 0 0 0 0 0 0 0 0 0 0 0 0 0 0 0 0 0 0 0 0 0 0 0 0 0 0 0 0 0 0 0 0 0 0 0
1 1 1 0 0 0 0 0 0 0 0 0 0 0 0 0 0 0 0 0 0 0 0 0 0 0 0 0 0 0 0 0 0 0 0 0 0 0 0 0 0 0 0
1 1 1 0 0 0 0 0 0 0 0 0 0 0 0 0 0 0 0 0 0 0 0 0 0 0 0 0 0 0 0 0 0 0 0 0 0 0 0 0 0 0 0
1 1 0 1 0 0 0 0 0 0 0 0 0 0 0 0 0 0 0 0 0 0 0 0 0 0 0 0 0 0 0 0 0 0 0 0 0 0 0 0 0 0 0
1 1 1 1 0 0 0 0 0 0 0 0 0 0 0 0 0 0 0 0 0 0 0 0 0 0 0 0 0 0 0 0 0 0 0 0 0 0 0 0 0 0 0
1 1 1 1 1 0 0 0 0 0 0 0 0 0 0 0 0 0 0 0 0 0 0 0 0 0 0 0 0 0 0 0 0 0 0 0 0 0 0 0 0 0 0
1 1 1 1 1 0 0 0 0 0 0 0 0 0 0 0 0 0 0 0 0 0 0 0 0 0 0 0 0 0 0 0 0 0 0 0 0 0 0 0 0 0 0
1 1 1 1 1 0 0 0 0 0 0 0 0 0 0 0 0 0 0 0 0 0 0 0 0 0 0 0 0 0 0 0 0 0 0 0 0 0 0 0 0 0 0
1 1 1 1 1 0 0 0 0 0 0 0 0 0 0 0 0 0 0 0 0 0 0 0 0 0 0 0 0 0 0 0 0 0 0 0 0 0 0 0 0 0 0
1 1 1 1 0 0 0 0 0 0 0 0 0 0 0 0 0 0 0 0 0 0 0 0 0 0 0 0 0 0 0 0 0 0 0 0 0 0 0 0 0 0 0
1 1 0 0 0 0 0 0 0 0 0 0 0 0 0 0 0 0 0 0 0 0 0 0 0 0 0 0 0 0 0 0 0 0 0 0 0 0 0 0 0 0 0
1 1 1 0 0 0 0 0 0 0 0 0 0 0 0 0 0 0 0 0 0 0 0 0 0 0 0 0 0 0 0 0 0 0 0 0 0 0 0 0 0 0 0
1 1 1 0 0 0 0 0 0 0 0 0 0 0 0 0 0 0 0 0 0 0 0 0 0 0 0 0 0 0 0 0 0 0 0 0 0 0 0 0 0 0 0
1 1 1 1 0 0 0 0 0 0 0 0 0 0 0 0 0 0 0 0 0 0 0 0 0 0 0 0 0 0 0 0 0 0 0 0 0 0 0 0 0 0 0
1 1 1 1 0 0 0 0 0 0 0 0 0 0 0 0 0 0 0 0 0 0 0 0 0 0 0 0 0 0 0 0 0 0 0 0 0 0 0 0 0 0 0
1 1 1 1 0 0 0 0 0 0 0 0 0 0 0 0 0 0 0 0 0 0 0 0 0 0 0 0 0 0 0 0 0 0 0 0 0 0 0 0 0 0 0
1 1 1 1 0 0 0 0 0 0 0 0 0 0 0 0 0 0 0 0 0 0 0 0 0 0 0 0 0 0 0 0 0 0 0 0 0 0 0 0 0 0 0
1 1 1 1 1 0 0 0 0 0 0 0 0 0 0 0 0 0 0 0 0 0 0 0 0 0 0 0 0 0 0 0 0 0 0 0 0 0 0 0 0 0 0
1 1 1 1 1 1 1 1 0 0 0 0 0 0 0 0 0 0 0 0 0 0 0 0 0 0 0 0 0 0 0 0 0 0 0 0 0 0 0 0 0 0 0
0 0 1 1 1 1 1 1 1 1 0 0 0 0 0 0 0 0 0 0 0 0 0 0 0 0 0 0 0 0 0 0 0 0 0 0 0 0 0 0 0 0 0
0 0 0 1 1 1 1 1 1 1 1 0 0 0 0 0 0 0 0 0 0 0 0 0 0 0 0 0 0 0 0 0 0 0 0 0 0 0 0 0 0 0 0
0 0 0 0 1 1 1 1 1 1 1 0 0 0 0 0 0 0 0 0 0 0 0 0 0 0 0 0 0 0 0 0 0 0 0 0 0 0 0 0 0 0 0
0 0 0 0 0 1 1 1 1 1 1 1 0 0 0 0 0 0 0 0 0 0 0 0 0 0 0 0 0 0 0 0 0 0 0 0 0 0 0 0 0 0 0
0 0 0 0 0 0 1 1 1 1 1 0 0 0 0 0 0 0 0 0 0 0 0 0 0 0 0 0 0 0 0 0 0 0 0 0 0 0 0 0 0 0 0
0 0 0 0 0 0 0 1 1 1 0 0 0 0 0 0 0 0 0 0 0 0 0 0 0 0 0 0 0 0 0 0 0 0 0 0 0 0 0 0 0 0 0
0 0 0 0 0 0 0 0 0 0 0 0 0 0 0 0 0 0 0 0 0 0 0 0 0 0 0 0 0 0 0 0 0 0 0 0 0 0 0 0 0 0 0
Wind_Speed
11 15 18 17 16 15 15 14 14 13 13 13 13 12 11 11 10 10 9 9 9 10 11 12 12 13 14 14 14 14 14 13 12 13 13 12 12 13 13 12 11 8 11
15 16 17 17 16 15 15 14 13 13 12 12 12 12 11 10 10 9 8 9 9 10 12 12 13 13 13 13 14 13 12 10 9 9 9 9 10 11 13 13 12 7 11
17 16 16 16 15 15 15 15 14 13 13 12 12 11 10 9 9 9 8 9 9 11 12 13 13 13 13 12 12 12 10 7 5 3 3 4 7 11 12 11 11 12 11
16 15 14 16 16 16 16 15 15 14 13 12 11 10 10 9 8 8 8 9 11 12 13 13 13 13 12 12 11 10 7 5 3 3 2 6 7 11 12 11 12 12 12
14 13 15 16 16 16 16 15 14 13 12 12 11 10 9 9 8 9 10 11 12 13 13 13 12 12 11 11 10 8 5 4 6 4 7 8 6 11 14 13 14 14 14
13 13 15 15 16 16 16 15 14 14 13 12 11 10 10 9 9 10 11 12 12 12 12 12 11 11 10 9 8 5 4 5 5 5 7 7 6 12 15 15 15 16 16
14 14 14 15 15 16 15 15 14 14 13 12 11 11 10 10 11 11 12 12 12 12 12 11 11 10 9 8 7 4 4 7 3 7 8 7 8 14 15 15 15 15 15
14 14 13 14 14 15 15 14 13 13 13 12 11 10 10 11 12 12 12 12 12 12 11 10 10 9 8 7 5 3 5 6 5 9 8 7 11 14 14 14 14 14 14
14 13 11 10 12 13 13 13 13 12 11 11 10 10 10 10 11 12 11 11 11 11 10 9 9 8 8 7 4 2 4 6 3 5 8 5 10 13 13 13 13 13 13
12 11 10 10 9 9 9 12 12 12 11 10 10 10 10 9 10 10 9 10 10 10 9 9 8 8 7 6 4 0 3 5 1 6 5 6 11 11 11 11 12 12 12
9 9 10 10 9 9 9 10 11 11 10 10 9 10 9 6 6 6 9 9 9 9 9 8 8 7 7 5 3 2 3 2 3 5 5 9 11 10 10 10 10 10 11
7 7 8 9 9 9 9 8 6 7 7 6 6 7 5 5 5 7 10 10 9 9 8 8 8 7 5 3 3 3 3 3 4 5 6 11 10 9 9 9 9 9 10
5 5 6 7 7 7 6 7 5 4 5 5 7 8 5 4 5 6 4 5 5 7 5 5 5 4 4 4 4 4 3 1 3 5 6 11 10 9 9 8 8 8 9
6 5 4 5 6 6 7 5 5 4 5 4 6 9 5 3 4 5 4 5 4 3 4 4 4 5 5 4 5 5 3 1 3 4 5 10 10 9 8 8 8 8 8
9 7 5 4 5 5 6 4 5 5 5 5 5 6 6 4 4 4 4 5 5 4 5 5 4 5 4 4 3 3 3 3 5 6 4 9 9 9 9 8 8 7 7
8 8 7 6 4 4 4 4 3 4 4 4 4 5 6 5 5 4 4 5 5 4 5 4 5 4 3 3 3 3 3 3 4 6 6 6 9 9 9 9 8 7 7
7 7 8 8 6 5 5 5 4 3 4 4 4 5 5 5 6 5 4 4 4 4 5 4 4 3 3 3 3 3 3 4 4 6 7 5 5 7 9 10 9 8 7
7 7 8 8 8 7 5 5 4 4 4 4 4 5 6 6 6 5 4 4 5 4 4 4 3 3 3 3 2 2 2 2 4 5 6 6 5 5 6 10 10 9 8
6 7 8 8 8 7 6 4 4 4 4 4 4 4 6 7 7 5 5 4 5 4 4 4 4 4 3 3 3 3 3 3 3 3 5 6 6 7 5 8 10 10 9
4 5 6 7 8 7 6 4 3 4 3 3 4 5 6 6 7 6 5 6 6 4 5 4 5 4 4 4 3 3 3 3 3 3 4 4 5 7 7 7 6 6 10
4 4 5 6 7 6 5 5 5 5 4 4 4 5 6 7 7 7 5 6 6 5 6 6 5 5 4 3 3 1 2 2 4 4 4 3 5 6 7 8 6 5 5
3 3 2 3 5 5 4 4 4 4 3 4 4 5 6 6 7 7 7 6 6 5 6 7 6 5 4 5 4 3 2 3 4 5 4 4 5 5 6 7 7 7 6
2 2 1 1 2 3 3 2 2 2 2 3 4 5 6 7 7 7 8 7 7 7 7 8 8 8 6 5 5 5 5 6 3 3 5 5 4 4 4 4 6 6 7
2 2 1 1 1 1 2 3 3 4 4 5 4 4 6 8 8 8 8 8 8 7 7 8 8 7 7 5 4 4 3 3 4 2 2 3 4 3 4 3 4 4 5
3 2 2 2 1 1 0 1 3 3 4 3 3 4 5 6 8 8 8 8 8 7 8 8 8 8 7 7 5 4 4 2 2 4 3 3 2 2 2 3 3 3 4
3 2 2 2 2 2 2 1 2 3 3 3 4 4 4 3 4 7 7 7 7 7 8 8 8 9 8 8 6 5 5 4 5 5 4 3 3 2 1 1 2 2 3
Wind_Direction
126 137 146 143 140 138 136 135 134 134 133 131 127 122 116 112 109 105 102 100 98 97 94 93 92 88 83 81 82 81 81 82 84 82 78 71 68 68 61 57 69 69 70
129 138 145 141 140 139 136 133 130 128 127 127 125 121 116 111 108 108 107 106 105 103 97 94 93 89 86 83 83 84 85 89 94 97 94 81 72 69 65 62 65 69 68
129 138 144 140 140 139 135 131 128 126 125 125 123 120 116 112 110 110 108 108 108 106 100 96 93 91 89 86 84 84 85 86 85 88 108 101 81 74 72 69 68 67 66
129 141 144 140 140 139 136 133 130 129 127 125 121 119 116 113 113 111 111 111 109 107 103 100 96 94 92 88 86 85 81 64 28 356 84 90 78 77 74 74 73 69 68
131 141 135 140 140 139 137 136 134 133 129 125 121 119 116 113 114 113 111 111 109 106 106 104 100 97 94 90 88 86 70 22 356 31 73 76 73 77 75 76 74 71 71
133 128 135 138 139 138 138 137 137 135 131 128 123 119 116 112 112 113 112 111 110 111 112 109 105 101 97 93 89 80 37 358 347 63 72 76 74 80 78 76 75 73 71
127 125 138 136 138 139 139 139 138 136 134 131 127 123 118 116 115 113 114 114 114 115 115 114 110 106 101 97 91 67 6 350 60 76 74 71 75 80 79 78 76 73 72
121 127 135 134 137 139 141 140 139 137 136 134 132 127 121 119 120 120 119 120 119 119 117 115 114 109 106 101 93 50 359 356 69 89 85 77 82 83 81 80 78 76 74
121 127 136 139 139 139 140 141 139 136 137 137 135 128 121 118 122 124 124 126 125 123 120 118 118 117 113 109 102 45 341 351 35 91 96 86 89 87 85 83 81 78 76
127 135 144 146 146 145 143 142 139 137 139 136 130 123 121 123 127 130 129 129 128 126 126 126 126 125 121 119 121 195 311 327 68 95 96 99 95 92 89 88 84 82 80
132 140 148 151 154 154 153 147 141 141 142 136 130 134 137 144 141 144 133 133 133 131 133 135 135 134 130 133 151 225 280 268 106 97 100 109 105 101 97 94 92 89 87
140 143 150 156 157 159 155 146 151 152 151 159 153 158 178 175 162 148 135 140 141 140 143 147 151 154 160 165 186 221 256 234 125 112 119 121 115 111 107 104 101 98 93
154 145 152 158 157 154 140 155 161 161 163 183 166 175 197 176 139 129 138 140 144 152 156 156 164 198 207 181 177 207 239 213 113 117 129 130 127 125 121 117 113 109 103
171 167 167 166 161 156 148 162 162 163 166 182 173 180 190 160 149 153 159 165 170 179 171 171 194 211 211 184 185 201 194 114 106 114 133 135 138 139 136 133 128 122 116
173 171 177 184 174 166 156 164 168 167 168 180 172 182 177 154 163 167 173 170 179 180 175 184 203 199 200 196 199 184 157 152 131 128 136 144 147 152 153 150 146 140 132
169 170 174 189 192 185 168 166 173 169 168 174 166 181 176 163 172 173 181 173 181 180 175 186 200 191 192 192 189 172 160 156 141 137 142 147 155 161 167 167 163 157 149
172 174 176 185 192 195 190 180 181 179 171 178 169 183 187 180 177 174 183 177 180 181 180 183 197 189 184 184 188 184 177 176 160 146 151 153 157 169 178 180 176 172 166
173 181 184 186 188 194 197 192 185 188 184 182 176 180 189 193 183 177 184 185 182 179 180 179 185 180 180 177 184 195 178 164 174 167 159 160 162 169 183 187 183 181 180
177 183 184 182 187 192 195 195 196 195 195 185 184 186 192 196 191 181 188 190 185 182 183 183 183 176 180 187 190 191 186 176 192 186 173 167 165 164 168 185 179 182 186
180 185 186 183 187 187 186 193 197 205 206 199 196 197 196 198 196 189 192 196 189 185 186 182 184 187 181 180 185 186 194 188 189 198 197 177 166 164 164 168 167 179 186
181 192 192 186 189 184 182 188 194 204 206 208 213 212 207 202 200 197 197 199 196 194 191 185 179 190 194 165 146 196 261 221 202 203 200 189 181 174 166 168 171 170 186
169 179 200 199 189 185 184 187 189 190 204 207 206 218 221 215 208 206 204 201 199 198 196 193 185 182 190 174 156 146 220 258 251 215 197 201 193 179 181 178 175 172 174
126 148 196 226 202 181 172 170 175 187 202 209 212 214 219 222 222 215 212 208 205 202 205 202 193 187 193 195 179 167 178 211 217 226 211 199 192 182 186 183 180 173 168
98 61 24 328 304 178 168 172 183 200 213 220 219 219 216 216 222 221 217 213 212 209 210 208 203 198 185 193 207 217 207 166 163 201 258 213 188 179 176 180 175 169 158
79 54 18 352 343 351 257 195 201 222 229 237 237 235 227 221 220 222 219 216 216 215 214 211 208 206 200 195 189 189 216 229 191 162 202 223 216 197 170 164 155 154 155
93 68 31 7 357 359 347 310 246 243 247 258 262 255 246 235 225 224 224 222 221 217 216 216 213 211 211 206 200 188 180 187 198 192 187 181 202 214 176 152 159 156 160